Wind_Speed
37 37 38 39 38 38 37 37 37 36 36 36 36 35 34 33 32 30 29 28 26 26 25 24 23 22 22 21 20 21 22 23 22 22 22 22 23 24
39 39 39 40 40 39 40 40 39 38 38 37 37 36 36 35 34 32 31 29 28 26 25 24 24 23 22 21 19 19 20 21 21 21 21 21 21 22
42 41 42 41 41 41 43 42 41 41 41 40 40 38 38 37 36 35 33 32 30 28 27 26 25 24 23 22 20 19 19 20 20 20 21 21 21 21
46 45 45 44 44 44 45 44 43 42 42 42 42 40 39 39 39 37 36 34 33 30 29 28 27 26 24 23 22 21 20 20 20 20 20 21 21 20
49 49 49 49 48 48 47 47 46 45 45 44 43 42 41 41 41 40 38 36 35 33 31 30 28 27 26 25 23 22 21 20 20 20 20 21 21 21
51 51 52 52 51 52 51 50 50 49 48 48 46 45 44 43 43 41 40 39 37 35 34 32 30 28 27 26 25 24 22 21 21 20 20 20 20 21
51 53 54 54 54 55 55 53 52 52 52 51 50 49 48 46 45 43 42 41 40 38 36 35 33 31 29 28 27 26 25 23 22 21 20 20 21 21
50 52 54 55 55 56 56 56 56 55 54 54 54 53 51 49 47 46 45 44 43 41 40 38 36 34 32 31 29 28 27 26 25 24 23 22 22 21
46 49 51 54 55 56 56 57 57 57 57 56 56 55 54 52 50 48 47 46 45 44 43 41 39 37 35 34 32 30 29 28 27 26 25 24 24 23
42 46 48 51 54 55 56 57 57 57 58 58 57 57 56 54 52 50 49 48 48 46 45 43 42 40 38 36 34 33 32 31 29 28 27 26 25 24
37 40 42 46 50 52 53 55 56 57 59 59 58 58 57 56 54 53 51 50 49 48 46 44 43 42 40 39 37 36 34 33 32 31 29 28 27 26
31 34 37 40 45 49 51 52 53 55 56 57 58 58 57 57 56 53 51 51 50 48 48 47 45 44 43 41 39 38 36 35 34 33 32 30 29 28
26 29 32 35 39 43 46 49 50 52 53 54 55 57 57 56 55 54 53 51 50 50 49 48 47 45 44 42 41 40 39 37 35 34 34 33 31 30
22 24 28 30 33 37 40 43 46 49 50 51 53 54 56 56 54 53 53 52 50 50 49 49 48 47 45 42 41 40 40 39 37 36 35 34 33 32
18 21 24 27 29 32 35 38 41 44 46 48 49 51 53 55 55 54 53 52 50 50 50 48 47 46 45 44 42 41 40 39 38 37 37 36 35 34
14 17 20 22 25 27 30 33 37 40 42 45 47 49 51 52 53 53 53 53 52 50 49 49 47 45 44 44 44 42 41 40 39 38 37 36 36 34
11 14 17 20 22 25 27 30 33 37 39 42 44 47 48 50 51 52 51 51 50 49 48 48 48 47 45 44 43 42 40 40 39 39 38 37 36 35
9 11 13 16 19 22 24 27 30 32 35 38 41 44 46 48 50 51 50 49 49 49 48 47 46 46 45 44 43 42 41 40 39 39 38 38 37 36
6 8 10 13 16 19 21 24 27 30 32 35 38 41 44 45 47 48 48 47 47 47 47 46 45 44 44 43 42 42 41 40 39 39 38 38 38 37
3 5 7 9 11 14 17 20 23 26 29 32 34 37 41 42 44 46 46 45 45 45 44 44 42 41 40 41 41 41 41 40 40 40 39 38 38 37
2 3 5 8 10 11 13 16 19 23 26 28 31 34 36 39 41 43 44 43 43 43 42 41 40 40 41 41 40 40 40 41 40 39 38 38 37 37
3 2 3 5 6 9 11 13 16 19 22 26 28 31 33 35 38 41 42 42 41 41 41 40 40 39 39 39 38 38 39 39 40 40 39 39 38 36
6 4 2 2 3 5 7 9 11 15 19 22 26 29 30 32 34 37 39 39 40 40 40 39 38 38 38 38 38 37 36 37 37 38 38 38 36 35
Wind_Direction
242 239 236 234 232 229 227 224 221 220 219 220 219 219 220 221 222 222 222 222 222 221 220 221 221 222 224 225 226 228 228 229 230 231 234 237 240 243
242 238 235 232 228 226 226 225 223 219 217 218 218 218 219 220 221 222 222 223 222 221 220 220 221 221 221 222 223 225 225 227 229 231 233 236 241 244
241 238 234 231 228 225 225 223 222 220 218 217 217 218 219 218 219 221 221 222 222 222 221 219 219 220 220 221 223 226 226 227 229 232 235 239 242 244
240 237 234 232 228 227 225 223 222 220 218 218 218 218 219 220 220 220 220 221 222 221 221 220 220 221 221 222 224 227 228 229 232 235 238 239 242 245
239 237 233 231 230 228 227 225 223 222 220 219 218 219 219 220 220 221 221 220 221 221 222 222 222 222 223 224 225 228 230 231 233 235 237 239 242 246
239 237 234 231 230 229 228 226 225 223 221 220 220 220 221 221 221 221 222 221 221 222 223 224 224 224 224 226 227 228 230 233 234 235 237 239 242 246
238 236 234 232 231 229 229 228 227 226 224 222 221 221 221 221 222 222 222 222 223 224 224 225 225 226 226 227 228 229 230 233 235 236 239 242 245 248
237 236 234 233 231 230 230 229 228 228 227 226 224 223 222 221 221 222 222 224 225 225 226 226 226 227 228 229 230 231 232 234 237 239 241 244 247 250
235 234 234 233 231 230 230 230 230 230 229 227 226 225 225 225 224 223 223 224 224 226 227 227 228 229 230 231 232 234 235 236 239 241 243 247 250 252
234 232 232 232 231 231 230 230 230 230 230 229 228 226 226 226 226 226 225 225 225 225 226 228 228 229 231 232 234 236 237 239 240 242 245 246 249 252
232 231 231 231 231 230 230 229 229 229 230 230 229 228 227 226 226 227 227 227 227 227 228 228 229 230 232 234 235 237 239 240 242 244 246 248 249 251
231 228 228 229 229 229 229 229 229 229 229 229 229 229 228 228 228 227 227 228 228 228 228 230 230 231 232 234 236 237 239 240 243 244 246 248 249 251
230 227 227 228 228 228 228 228 229 228 228 228 228 229 229 229 228 228 227 228 229 229 230 230 230 230 231 233 235 236 238 240 242 244 246 247 248 250
229 227 226 227 228 228 227 227 228 228 227 227 227 227 228 229 228 228 229 229 229 229 229 229 230 231 231 232 233 235 237 239 241 243 245 247 249 250
227 226 226 227 227 227 226 226 226 227 227 227 226 226 226 226 226 226 228 229 229 229 230 230 231 232 232 233 234 236 237 238 240 242 244 246 249 250
229 228 225 224 225 224 225 225 225 224 225 226 226 225 225 224 224 225 227 228 229 228 229 229 229 230 231 233 234 235 237 239 239 240 242 245 247 249
231 228 227 228 228 226 225 225 224 223 223 224 224 223 222 222 223 224 225 226 226 227 227 227 228 229 230 231 232 233 235 237 238 238 240 242 244 246
232 228 228 227 224 222 221 222 223 223 223 223 223 221 219 219 220 221 222 223 225 226 225 226 226 227 227 229 231 232 234 236 236 237 238 240 243 245
235 231 231 229 226 224 222 222 221 221 222 221 221 218 217 217 218 219 220 221 222 224 225 225 226 227 227 227 229 230 232 233 233 234 236 239 241 244
240 233 231 227 224 223 222 222 221 220 220 219 219 217 215 216 217 217 217 219 220 222 223 223 224 225 226 227 227 227 228 230 232 233 235 237 239 241
288 250 240 232 228 224 222 220 220 220 219 217 216 214 213 213 213 214 215 218 218 219 220 221 221 222 223 225 226 226 228 230 231 232 234 236 238 239
355 316 260 240 233 225 222 221 218 218 218 215 213 211 211 211 212 213 214 215 216 216 216 217 218 219 221 222 223 225 228 230 230 231 233 236 237 239
17 4 342 301 232 217 215 215 215 213 211 210 209 208 208 207 207 208 209 210 211 212 213 214 215 216 217 218 221 223 226 228 229 229 232 234 237 240
Height
5737 5741 5744 5748 5753 5756 5761 5767 5773 5778 5784 5789 5794 5799 5804 5809 5813 5818 5822 5826 5829 5832 5836 5839 5842 5845 5848 5850 5853 5856 5858 5861 5864 5866 5869 5872 5874 5877
5725 5730 5734 5738 5742 5747 5752 5757 5763 5769 5774 5780 5786 5791 5796 5801 5806 5811 5816 5820 5824 5827 5830 5834 5837 5841 5843 5846 5848 5851 5854 5856 5859 5862 5864 5867 5869 5871
5713 5717 5722 5727 5731 5736 5742 5747 5753 5760 5765 5771 5777 5782 5788 5793 5799 5804 5809 5813 5817 5821 5825 5829 5832 5836 5839 5841 5844 5847 5849 5852 5854 5857 5859 5862 5864 5866
5699 5704 5710 5715 5720 5726 5731 5737 5743 5749 5756 5762 5768 5773 5779 5785 5791 5796 5801 5806 5811 5815 5819 5823 5827 5830 5834 5837 5839 5842 5845 5847 5850 5852 5854 5857 5859 5861
5684 5690 5696 5702 5708 5714 5720 5726 5732 5739 5745 5752 5758 5764 5770 5776 5782 5788 5793 5798 5804 5808 5813 5817 5821 5825 5828 5831 5834 5837 5840 5843 5845 5847 5849 5852 5854 5856
5668 5674 5681 5688 5694 5701 5707 5714 5721 5727 5734 5742 5748 5754 5761 5766 5773 5779 5785 5791 5796 5801 5806 5810 5815 5819 5822 5826 5829 5832 5835 5838 5840 5842 5844 5846 5849 5850
5652 5658 5665 5672 5680 5687 5693 5700 5708 5715 5722 5729 5737 5744 5750 5757 5763 5770 5776 5781 5787 5793 5798 5803 5808 5812 5816 5819 5823 5826 5829 5832 5835 5837 5839 5841 5843 5845
5636 5642 5649 5657 5664 5672 5679 5686 5694 5702 5710 5717 5725 5732 5739 5746 5753 5759 5766 5772 5779 5785 5789 5794 5799 5804 5809 5812 5816 5819 5822 5826 5829 5831 5833 5835 5837 5839
5620 5627 5634 5641 5649 5657 5664 5672 5680 5688 5696 5705 5712 5720 5727 5735 5742 5749 5755 5762 5769 5774 5780 5785 5790 5796 5801 5805 5809 5813 5816 5819 5822 5825 5827 5829 5831 5832
5607 5613 5620 5626 5634 5642 5650 5658 5666 5674 5683 5691 5699 5707 5714 5721 5729 5737 5744 5751 5757 5764 5770 5776 5781 5787 5792 5797 5801 5805 5809 5812 5815 5818 5820 5822 5824 5826
5595 5601 5607 5613 5621 5629 5636 5645 5652 5660 5667 5677 5685 5693 5701 5709 5717 5725 5732 5740 5747 5754 5760 5766 5772 5777 5782 5787 5792 5796 5800 5804 5807 5810 5813 5815 5817 5819
5586 5591 5597 5602 5608 5615 5623 5631 5639 5646 5654 5663 5671 5679 5688 5696 5705 5713 5721 5728 5735 5743 5749 5756 5762 5767 5773 5778 5783 5787 5791 5795 5799 5802 5805 5807 5810 5811
5579 5583 5588 5592 5598 5604 5611 5618 5625 5633 5641 5649 5658 5666 5675 5684 5692 5701 5709 5717 5724 5732 5738 5744 5750 5756 5762 5768 5773 5777 5782 5786 5790 5793 5796 5799 5802 5804
5573 5577 5580 5585 5590 5595 5601 5607 5613 5621 5628 5637 5645 5654 5662 5672 5680 5688 5696 5704 5711 5719 5726 5733 5739 5746 5752 5757 5762 5767 5772 5777 5781 5785 5788 5791 5793 5795
5568 5571 5575 5578 5582 5587 5592 5598 5604 5610 5617 5625 5633 5641 5649 5658 5667 5675 5684 5692 5699 5707 5714 5722 5729 5735 5741 5747 5752 5757 5762 5767 5771 5775 5779 5782 5785 5787
5564 5567 5569 5572 5576 5580 5585 5589 5595 5601 5607 5614 5621 5629 5637 5646 5655 5663 5672 5680 5688 5696 5703 5710 5717 5724 5730 5736 5741 5747 5752 5757 5761 5765 5769 5772 5775 5778
5561 5563 5565 5568 5571 5574 5578 5582 5587 5592 5598 5604 5611 5618 5626 5635 5643 5652 5660 5668 5677 5685 5692 5699 5705 5712 5719 5725 5731 5736 5742 5747 5751 5755 5759 5763 5766 5769
5559 5560 5562 5564 5566 5569 5572 5576 5580 5585 5590 5595 5602 5609 5616 5624 5633 5641 5649 5657 5665 5673 5680 5687 5694 5701 5708 5714 5721 5726 5731 5736 5741 5745 5749 5753 5756 5759
5557 5558 5559 5560 5562 5564 5567 5570 5574 5578 5583 5588 5594 5600 5607 5614 5622 5631 5639 5646 5654 5661 5669 5676 5684 5691 5697 5704 5710 5715 5721 5725 5730 5735 5739 5743 5746 5749
5556 5557 5557 5558 5559 5561 5563 5565 5568 5572 5576 5581 5587 5592 5599 5606 5614 5622 5630 5637 5644 5651 5659 5667 5674 5681 5688 5694 5699 5704 5710 5715 5720 5724 5729 5732 5736 5739
5556 5556 5556 5556 5557 5558 5560 5561 5564 5566 5570 5575 5580 5585 5591 5598 5605 5613 5621 5628 5636 5643 5651 5659 5665 5671 5677 5683 5690 5695 5700 5705 5710 5715 5719 5723 5726 5729
5556 5555 5555 5555 5555 5556 5557 5558 5560 5562 5565 5569 5574 5579 5584 5590 5598 5605 5613 5620 5628 5636 5643 5649 5655 5662 5669 5675 5681 5686 5691 5696 5701 5705 5710 5714 5717 5720
5556 5555 5554 5554 5554 5555 5556 5556 5558 5559 5562 5565 5569 5574 5579 5585 5591 5598 5605 5613 5621 5628 5635 5641 5648 5655 5661 5666 5672 5677 5682 5687 5692 5696 5701 5704 5708 5711